Location: Falkner
(32.6954°N, 86.0502°W)
Time: 12:30:59
(UTC+00:00)

CZ-2D R/B - Pass Details

Date: 29 October 2020
Orbit: 522 x 537 km, 97.4° (Epoch: 04 December)

Event Time Altitude Azimuth Distance (km) Brightness Sun altitude
Rises 23:38:38 0° 145° (SE) 2,649 6.6 -9.7°
Reaches altitude 10° 23:40:55 10° 134° (SE) 1,761 5.6 -10.1°
Maximum altitude 23:44:14 29° 73° (ENE) 976 4.0 -10.8°
Drops below altitude 10° 23:47:33 10° 13° (NNE) 1,765 5.7 -11.5°
Sets 23:49:50 0° 2° (N) 2,656 6.7 -12.0°
